Simultaneous Nadir Overpasses (SNOs) Predictions

Prediction of SNOs between NOAA-19 and TERRA Satellite Orbit:

Table of predicted SNOs for the next 14.0 days since TLE Epoch: 5/22/2016
Index Date (NOAA-19) Time (NOAA-19) Lat,Lon (NOAA-19) SZA (NOAA-19 ) Date (TERRA) Time (TERRA) Lat,Lon (TERRA) SZA (TERRA ) Distance(km) Time Diff (sec)
1 05/23/2016 20:01:08 -73.67, 66.57 127.03 05/23/2016 20:01:53 -73.69, 66.51 127.01 2.48 45
2 05/23/2016 20:52:06 73.62,-126.04 52.92 05/23/2016 20:51:20 73.62,-125.99 52.91 1.37 46
3 05/26/2016 01:35:11 73.68, 163.09 52.59 05/26/2016 01:35:37 73.70, 163.12 52.62 2.87 26
4 05/26/2016 02:26:12 -73.61, -29.50 127.49 05/26/2016 02:25:06 -73.63, -29.41 127.48 3.23 66
5 05/28/2016 07:09:16 -73.65,-100.32 127.81 05/28/2016 07:09:24 -73.65,-100.43 127.81 3.42 8
6 05/28/2016 08:00:07 73.21, 67.99 51.80 05/28/2016 07:58:57 73.26, 66.39 51.76 51.76 70
7 05/30/2016 11:52:26 -74.00,-171.89 127.84 05/30/2016 11:53:37 -73.93,-170.90 127.85 31.41 71
8 05/30/2016 12:43:20 73.67, -3.83 51.88 05/30/2016 12:43:07 73.70, -3.77 51.90 3.06 13
9 06/01/2016 17:26:25 73.75, -74.74 51.64 06/01/2016 17:27:24 73.75, -74.73 51.65 0.53 59
10 06/01/2016 18:17:24 -73.66, 92.73 128.45 06/01/2016 18:16:53 -73.68, 92.76 128.43 2.43 31
11 06/03/2016 23:00:28 -73.72, 21.86 128.66 06/03/2016 23:01:10 -73.73, 21.78 128.65 2.61 42




NCC Satellite Simultaneous Nadir Overpasses (SNOs) Prediction Service
